Find Starlink 11322

NORAD ID: 61542 Int'l Des: 2024-184 Owner: SPXS Country: US Constellation: starlink operational
LEOCIRCULAR

Current View

Loading 3D Globe...

About Starlink 11322

Starlink 11322 (NORAD 61542) is a starlink constellation satellite (v2 mini d2c) launched Oct 15, 2024 by SPXS of US. It operates in LEO, CIRCULAR orbit with a mass of 960.00 kg.

About Starlink 11322

Description loading...

Upcoming Passes

Passes for default location (London). Set your location on the main map for personalized predictions.

Altitude History

Loading altitude history...

Two-Line Element Set

1 61542U 24184L 26170.94139780 .00000863 00000-0 11980-4 0 9994
2 61542 53.1587 92.4528 0000742 144.7146 215.3921 15.69707831 97533
Epoch: Jun 19, 2026 • Age: 32 hours

Current Status

Altitude 366.0 km
Velocity 7.70 km/s
Sub-Earth Point 53.16°N, 166.07°E
Launch Date Oct 15, 2024
Age 1.6 years
Type internet

Technical Details

Classification Payload
Mass 960.00 kg
Dry Mass 910.00 kg
Total Mass 960.00 kg
Length 0.30 m
Diameter 4.10 m
Span 29.00 m
Shape Box + pan
Manufacturer SPXS
Bus Type Starlink V2MD
Phase Status In Orbit
Owner/State SPXS/US

Most Searched